Regional Weather Roundup
Issued by NWS

Home | Current Version | Previous Version | Graphics & Text | Print | Product List | Glossary On
Versions: 1 2 3 4 5 6 7 8 9 10 11 12 13 14 15 16 17 18 19 20 21 22 23 24 25 26 27 28 29 30 31 32 33 34 35 36 37 38 39 40 41 42 43 44 45 46 47 48 49 50
000
ASUS43 KLMK 241502
RWRKY
KENTUCKY REGIONAL WEATHER ROUNDUP
NATIONAL WEATHER SERVICE LOUISVILLE KY
1100 AM EDT SUN MAY 24 2015

NOTE "FAIR" INDICATES FEW OR NO CLOUDS BELOW 12,000 FEET
WITH NO SIGNIFICANT WEATHER AND/OR OBSTRUCTIONS TO VISIBILITY.

KYZ001>023-026-027-061>063-070>075-241600-
WESTERN AND SOUTH CENTRAL KENTUCKY

CITY           SKY/WX    TMP DP  RH WIND       PRES   REMARKS
PADUCAH        MOSUNNY   78  59  51 S14G22    30.13F
HENDERSON      MOSUNNY   75  55  50 S17       30.16F
OWENSBORO      MOSUNNY   77  56  48 S21G28    30.20F
HOPKINSVILLE   SUNNY     75  59  56 S13       30.20F
BOWLING GREEN  SUNNY     77  57  50 S10       30.25F
GLASGOW        NOT AVBL
$$

KYZ024-025-028>034-038-045-046-053-241600-
NORTH CENTRAL KENTUCKY

CITY           SKY/WX    TMP DP  RH WIND       PRES   REMARKS
LOUISVILLE/SDF MOSUNNY   78  53  41 S16       30.25F
LOUISVILLE/LOU MOSUNNY   77  53  43 S13       30.26F
FORT KNOX      MOSUNNY   76  53  44 S20G26    30.24F
$$

KYZ035>037-039>044-047>052-055>060-089>105-241600-
NORTHEAST KENTUCKY

CITY           SKY/WX    TMP DP  RH WIND       PRES   REMARKS
LEXINGTON      MOSUNNY   77  51  40 S17G23    30.31S
COVINGTON      PTSUNNY   73  53  49 S9        30.29S
FRANKFORT      PTSUNNY   77  51  40 S15       30.28S
$$

KYZ054-064>069-076>088-106>120-241600-
SOUTHEAST KENTUCKY

CITY           SKY/WX    TMP DP  RH WIND       PRES   REMARKS
JACKSON        SUNNY     73  53  49 VRB3      30.35S
LONDON         SUNNY     74  45  35 S12G21    30.34S
SOMERSET       NOT AVBL
MIDDLESBORO    NOT AVBL
MONTICELLO     MOSUNNY   75  56  51 S14       30.35S
$$




USA.gov is the U.S. government's official web portal to all federal, state and local government web resources and services.